This demonstration page uses our WeatherBlox Daily Observations layout. Learn more.

Left ArrowRight Arrow

31.31129, -92.44514

Hourly Observations for December 13, 2020

Temp ( °F °C ) Dew Point ( °F °C ) Humidity (%) Winds ( mph kmh ) Pressure ( in mb ) Visibility ( mi km ) Precip ( " mm )
12:53 am 00:53 Clear with Mist and Fog 48 8.9 42 5.6 80 80 Calm 30.03 1017 10 16 0.00 0.00
1:53 am 01:53 Clear with Mist and Fog 47 8.3 42 5.6 83 83 Calm 30.03 1017 10 16 0.00 0.00
2:53 am 02:53 Clear with Mist and Fog 47 8.3 41 5 80 80 ENE 7 11 30.01 1016 10 16 0.00 0.00
3:53 am 03:53 Clear with Mist and Fog 48 8.9 42 5.6 80 80 NE 6 9 30.03 1017 10 16 0.00 0.00
4:53 am 04:53 Partly Cloudy with Mist and Fog 48 8.9 42 5.6 80 80 ENE 7 11 30.02 1017 10 16 0.00 0.00
5:53 am 05:53 Mostly Clear with Mist and Fog 47 8.3 43 6.1 86 86 E 5 7 30.03 1017 10 16 0.00 0.00
6:53 am 06:53 Mostly Clear with Mist and Fog 47 8.3 43 6.1 86 86 ENE 5 7 30.04 1017 10 16 0.00 0.00
7:53 am 07:53 Cloudy with Mist and Fog 48 8.9 45 7.2 89 89 E 6 9 30.05 1018 10 16 0.00 0.00
8:53 am 08:53 Cloudy with Mist and Fog 50 10 46 7.8 86 86 NE 5 7 30.05 1018 10 16 0.00 0.00
9:53 am 09:53 Sunny with Mist and Fog 55 12.8 48 8.9 77 77 E 9 15 30.02 1017 10 16 0.00 0.00
10:26 am 10:26 Mostly Cloudy with Mist and Fog 55 12.8 49 9.4 80 80 E 13 20 29.97 1015 10 16 0.00 0.00
10:53 am 10:53 Cloudy with Mist and Fog 56 13.3 50 10 81 81 E 7 11 29.99 1016 10 16 0.00 0.00
11:53 am 11:53 Cloudy with Mist and Fog 57 13.9 51 10.6 81 81 E 5 7 29.93 1014 10 16 0.00 0.00
12:20 pm 12:20 Cloudy with Light Rain 57 13.9 52 11.1 83 83 ESE 10 17 29.90 1013 8 13 0.00 0.00
12:37 pm 12:37 Cloudy with Rain 56 13.3 53 11.7 90 90 ESE 9 15 29.89 1012 3 4 0.07 1.78
12:53 pm 12:53 Cloudy with Light Rain 56 13.3 54 12.2 93 93 ESE 9 15 29.89 1012 2 3 0.07 1.78
1:00 pm 13:00 Cloudy with Light Rain 56 13.3 54 12.2 93 93 ESE 8 13 29.88 1012 8 13 0.00 0.00
1:22 pm 13:22 Cloudy with Light Rain 56 13.3 54 12.2 93 93 ESE 12 19 29.84 1011 5 8 0.02 0.51
1:51 pm 13:51 Cloudy with Heavy Rain 55 13 55 13 100 100 ESE 13 20 29.81 1009 2 3 0.09 2.29
1:53 pm 13:53 Cloudy with Heavy Rain 56 13.3 56 13.3 100 100 SE 10 17 29.83 1010 2 3 0.10 2.54
2:05 pm 14:05 Cloudy with Light Rain 57 13.9 56 13.3 96 96 SSE 7 11 29.83 1010 3 4 0.02 0.51
2:19 pm 14:19 Cloudy with Heavy Rain 57 13.9 56 13.3 96 96 SE 5 7 29.82 1010 1 2 0.08 2.03
2:53 pm 14:53 Cloudy with Rain 57 13.9 56 13.3 96 96 NNE 8 13 29.79 1009 2 2 0.22 5.59
3:03 pm 15:03 Cloudy with Light Rain 57 13.9 57 13.9 100 100 ESE 6 9 29.78 1008 3 5 0.00 0.00
3:10 pm 15:10 Cloudy with Rain 57 13.9 57 13.9 100 100 ESE 6 9 29.78 1008 3 5 0.02 0.51
3:16 pm 15:16 Cloudy with Heavy Rain 57 13.9 57 13.9 100 100 SE 7 11 29.77 1008 2 3 0.04 1.02
3:24 pm 15:24 Cloudy with Heavy Rain 57 13.9 57 13.9 100 100 SE 5 7 29.77 1008 1 2 0.08 2.03
3:51 pm 15:51 Cloudy with Heavy Rain 57 14 57 14 100 100 NW 9 15 29.77 1008 1 1 0.30 7.62
3:53 pm 15:53 Cloudy with Heavy Rain 57 13.9 57 13.9 100 100 NW 8 13 29.79 1009 1 1 0.33 8.38
4:05 pm 16:05 Cloudy with Rain 58 14.4 58 14.4 100 100 W 5 7 29.78 1008 2 2 0.03 0.76
4:13 pm 16:13 Cloudy with Heavy Rain 58 14.4 58 14.4 100 100 Calm 29.77 1008 1 2 0.07 1.78
4:31 pm 16:31 Cloudy with Heavy Rain 59 15 58 14.4 96 96 ESE 10 17 29.75 1007 2 2 0.15 3.81
4:40 pm 16:40 Cloudy with Rain 59 15 59 15 100 100 ESE 8 13 29.74 1007 2 3 0.18 4.57
4:53 pm 16:53 Cloudy with Heavy Rain 60 15.6 59 15 96 96 SSE 8 13 29.75 1008 2 2 0.29 7.37
4:58 pm 16:58 Cloudy with Heavy Rain 60 15.6 60 15.6 100 100 W 9 15 29.74 1007 2 2 0.05 1.27
5:08 pm 17:08 Cloudy with Heavy Rain 59 15 59 15 100 100 NW 3 6 29.74 1007 1 2 0.16 4.06
5:22 pm 17:22 Cloudy with Heavy Rain 53 11.7 51 10.6 93 93 NW 31 50 29.77 1008 1 1 0.50 12.70
5:29 pm 17:29 Cloudy with Heavy Rain 51 10.6 50 10 96 96 NW 24 39 29.81 1010 1 2 0.59 14.99
5:37 pm 17:37 Cloudy with Heavy Rain 50 10 48 8.9 93 93 NW 32 52 29.81 1010 2 3 0.65 16.51
5:44 pm 17:44 Cloudy with Rain 49 9.4 47 8.3 93 93 NW 35 56 29.83 1010 3 5 0.68 17.27
5:53 pm 17:53 Cloudy with Heavy Rain 49 9.4 47 8.3 93 93 NW 24 39 29.85 1011 3 4 0.71 18.03
6:07 pm 18:07 Cloudy with Heavy Rain 48 8.9 47 8.3 96 96 NW 24 39 29.85 1011 2 3 0.12 3.05
6:12 pm 18:12 Cloudy with Rain 48 8.9 47 8.3 96 96 NW 20 31 29.86 1011 3 5 0.12 3.05
6:40 pm 18:40 Cloudy with Mist and Fog 48 8.9 46 7.8 93 93 NW 16 26 29.88 1012 10 16 0.14 3.56
6:53 pm 18:53 Cloudy with Mist and Fog 48 8.9 46 7.8 93 93 NW 21 33 29.91 1013 10 16 0.14 3.56
7:53 pm 19:53 Cloudy with Mist and Fog 47 8.3 45 7.2 93 93 NW 18 30 29.95 1014 10 16 0.00 0.00
8:53 pm 20:53 Cloudy with Mist and Fog 47 8.3 44 6.7 90 90 NW 14 22 30.00 1016 10 16 0.00 0.00
9:53 pm 21:53 Cloudy with Mist and Fog 46 7.8 43 6.1 89 89 NW 20 31 30.04 1017 10 16 0.00 0.00
10:12 pm 22:12 Cloudy with Mist and Fog 45 7.2 42 5.6 90 90 NW 23 37 30.04 1017 7 11 0.00 0.00
10:53 pm 22:53 Cloudy with Mist and Fog 44 6.7 42 5.6 93 93 NW 18 30 30.09 1019 6 10 0.00 0.00
11:53 pm 23:53 Cloudy with Mist and Fog 44 6.7 41 5 89 89 NNW 15 24 30.11 1020 10 16 0.00 0.00

Powered by AerisWeather